| time (UTC) | temp F | wind direction | speed MPH | gust MPH | rain 1hr in | rain 24hr in | rain mn in | humidity % | barometer mb |
| 20260902171024 | 83 | 315 | 2.0 | 9.0 | 0.00 | 0.00 | 0.00 | 80 | 1021.4 |
| 20260902170029 | 82 | 77 | 0.0 | 0.0 | 0.00 | 0.00 | 0.00 | 80 | 1019.8 |
| 20260902165023 | 82 | 77 | 0.0 | 0.0 | 0.00 | 0.00 | 0.00 | 80 | 1019.7 |
| 20260902164037 | 82 | 77 | 0.0 | 0.0 | 0.00 | 0.00 | 0.00 | 81 | 1019.4 |
| 20260902163030 | 81 | 77 | 0.0 | 1.0 | 0.00 | 0.00 | 0.00 | 82 | 1019.4 |
| 20260902162043 | 81 | 79 | 0.0 | 0.0 | 0.00 | 0.00 | 0.00 | 82 | 1019.5 |
| 20260902161016 | 81 | 79 | 0.0 | 0.0 | 0.00 | 0.00 | 0.00 | 82 | 1019.2 |
| 20260902160021 | 80 | 79 | 0.0 | 0.0 | 0.00 | 0.00 | 0.00 | 83 | 1019.1 |
| 20260902155037 | 80 | 78 | 0.0 | 4.0 | 0.00 | 0.00 | 0.00 | 84 | 1018.9 |
| 20260902154032 | 79 | 79 | 0.0 | 1.0 | 0.00 | 0.00 | 0.00 | 85 | 1018.9 |
| 20260902153025 | 79 | 80 | 0.0 | 1.0 | 0.00 | 0.00 | 0.00 | 85 | 1018.9 |
| 20260902152019 | 78 | 79 | 0.0 | 2.0 | 0.00 | 0.00 | 0.00 | 86 | 1019.1 |
| 20260902151013 | 78 | 76 | 1.0 | 3.0 | 0.00 | 0.00 | 0.00 | 86 | 1019.0 |
| 20260902150040 | 77 | 76 | 0.0 | 3.0 | 0.00 | 0.00 | 0.00 | 86 | 1019.2 |
| 20260902145013 | 77 | 76 | 0.0 | 0.0 | 0.00 | 0.00 | 0.00 | 87 | 1019.4 |
| 20260902144027 | 77 | 76 | 0.0 | 0.0 | 0.00 | 0.00 | 0.00 | 88 | 1019.5 |
| 20260902143020 | 77 | 76 | 0.0 | 0.0 | 0.00 | 0.00 | 0.00 | 87 | 1019.2 |
| 20260902142014 | 77 | 76 | 0.0 | 0.0 | 0.00 | 0.00 | 0.00 | 88 | 1019.2 |
| 20260902141023 | 77 | 76 | 0.0 | 1.0 | 0.00 | 0.00 | 0.00 | 89 | 1019.2 |
| 20260902140029 | 77 | 76 | 0.0 | 0.0 | 0.00 | 0.00 | 0.00 | 89 | 1018.8 |
| 20260902135022 | 76 | 70 | 0.0 | 2.0 | 0.00 | 0.00 | 0.00 | 89 | 1018.7 |
| 20260902134036 | 77 | 65 | 0.0 | 2.0 | 0.00 | 0.00 | 0.00 | 90 | 1018.5 |
| 20260902133022 | 76 | 61 | 0.0 | 0.0 | 0.00 | 0.00 | 0.00 | 90 | 1018.8 |
| 20260902132016 | 76 | 61 | 0.0 | 3.0 | 0.00 | 0.00 | 0.00 | 90 | 1019.0 |
| 20260902131101 | 77 | 61 | 0.0 | 3.0 | 0.00 | 0.00 | 0.00 | 91 | 1018.9 |
| 20260902130027 | 77 | 61 | 0.0 | 1.0 | 0.00 | 0.00 | 0.00 | 91 | 1018.7 |
| 20260902125042 | 76 | 61 | 0.0 | 1.0 | 0.00 | 0.00 | 0.00 | 92 | 1018.7 |
| 20260902124024 | 76 | 61 | 0.0 | 1.0 | 0.00 | 0.00 | 0.00 | 92 | 1018.6 |
| 20260902123017 | 76 | 59 | 0.0 | 2.0 | 0.00 | 0.00 | 0.00 | 93 | 1018.3 |
| 20260902122101 | 76 | 59 | 0.0 | 0.0 | 0.00 | 0.00 | 0.00 | 93 | 1018.1 |
| 20260902121026 | 76 | 59 | 0.0 | 0.0 | 0.00 | 0.00 | 0.00 | 93 | 1018.2 |
| 20260902120013 | 76 | 59 | 0.0 | 0.0 | 0.00 | 0.00 | 0.00 | 93 | 1018.0 |
| 20260902115025 | 75 | 59 | 0.0 | 0.0 | 0.00 | 0.00 | 0.00 | 93 | 1018.0 |
| 20260902114018 | 75 | 59 | 0.0 | 0.0 | 0.00 | 0.00 | 0.00 | 93 | 1017.9 |
| 20260902113014 | 74 | 59 | 0.0 | 0.0 | 0.00 | 0.00 | 0.00 | 93 | 1017.9 |
| 20260902112048 | 74 | 59 | 0.0 | 0.0 | 0.00 | 0.00 | 0.00 | 92 | 1017.9 |
| 20260902111020 | 74 | 59 | 0.0 | 0.0 | 0.00 | 0.00 | 0.00 | 92 | 1018.1 |
| 20260902110028 | 73 | 59 | 0.0 | 0.0 | 0.00 | 0.00 | 0.00 | 91 | 1018.2 |
| 20260902105022 | 73 | 59 | 0.0 | 0.0 | 0.00 | 0.00 | 0.00 | 91 | 1018.1 |
| 20260902104015 | 73 | 59 | 0.0 | 0.0 | 0.00 | 0.00 | 0.00 | 90 | 1017.7 |
| 20260902103029 | 73 | 59 | 0.0 | 0.0 | 0.00 | 0.00 | 0.00 | 90 | 1018.0 |
| 20260902102023 | 74 | 59 | 0.0 | 0.0 | 0.00 | 0.00 | 0.00 | 90 | 1017.8 |
| 20260902101049 | 74 | 59 | 0.0 | 0.0 | 0.00 | 0.00 | 0.00 | 90 | 1017.7 |
| 20260902100015 | 74 | 59 | 0.0 | 0.0 | 0.00 | 0.00 | 0.00 | 90 | 1017.6 |
| 20260902095029 | 74 | 59 | 0.0 | 0.0 | 0.00 | 0.00 | 0.00 | 89 | 1017.4 |
| 20260902094022 | 74 | 59 | 0.0 | 0.0 | 0.00 | 0.00 | 0.00 | 89 | 1017.6 |
| 20260902093038 | 74 | 59 | 0.0 | 0.0 | 0.00 | 0.00 | 0.00 | 88 | 1017.7 |
| 20260902092054 | 74 | 59 | 0.0 | 0.0 | 0.00 | 0.00 | 0.00 | 88 | 1017.6 |
| 20260902091027 | 75 | 59 | 0.0 | 0.0 | 0.00 | 0.00 | 0.00 | 88 | 1017.4 |
| 20260902090015 | 75 | 59 | 0.0 | 0.0 | 0.00 | 0.00 | 0.00 | 88 | 1017.3 |
| 20260902085027 | 75 | 59 | 0.0 | 0.0 | 0.00 | 0.00 | 0.00 | 88 | 1017.4 |
| 20260902084040 | 75 | 59 | 0.0 | 0.0 | 0.00 | 0.00 | 0.00 | 87 | 1017.5 |
| 20260902083024 | 75 | 59 | 0.0 | 0.0 | 0.00 | 0.00 | 0.00 | 87 | 1017.5 |
| 20260902082017 | 75 | 59 | 0.0 | 0.0 | 0.00 | 0.00 | 0.00 | 87 | 1017.6 |
| 20260902081030 | 76 | 59 | 0.0 | 0.0 | 0.00 | 0.00 | 0.00 | 87 | 1017.4 |
| 20260902080017 | 76 | 59 | 0.0 | 0.0 | 0.00 | 0.00 | 0.00 | 86 | 1017.5 |
| 20260902075102 | 76 | 59 | 0.0 | 0.0 | 0.00 | 0.00 | 0.00 | 85 | 1017.6 |
| 20260902074026 | 76 | 59 | 0.0 | 0.0 | 0.00 | 0.00 | 0.00 | 85 | 1017.5 |
| 20260902073020 | 76 | 59 | 0.0 | 0.0 | 0.00 | 0.00 | 0.00 | 85 | 1017.4 |
| 20260902072031 | 77 | 59 | 0.0 | 0.0 | 0.00 | 0.00 | 0.00 | 85 | 1017.4 |
| 20260902071045 | 77 | 59 | 0.0 | 0.0 | 0.00 | 0.00 | 0.00 | 85 | 1017.2 |
| 20260902070041 | 77 | 59 | 0.0 | 0.0 | 0.00 | 0.00 | 0.00 | 85 | 1017.1 |
| 20260902065025 | 78 | 59 | 0.0 | 0.0 | 0.00 | 0.00 | 0.00 | 86 | 1017.1 |
| 20260902064034 | 78 | 59 | 0.0 | 0.0 | 0.00 | 0.00 | 0.00 | 86 | 1017.0 |
| 20260902063056 | 79 | 59 | 0.0 | 0.0 | 0.00 | 0.00 | 0.00 | 86 | 1016.6 |
| 20260902062022 | 79 | 52 | 0.0 | 0.0 | 0.00 | 0.00 | 0.00 | 86 | 1016.6 |
| 20260902061045 | 79 | 51 | 0.0 | 1.0 | 0.00 | 0.00 | 0.00 | 86 | 1016.4 |
| 20260902060050 | 79 | 51 | 0.0 | 0.0 | 0.00 | 0.00 | 0.00 | 85 | 1016.4 |
| 20260902055023 | 79 | 51 | 0.0 | 0.0 | 0.00 | 0.00 | 0.00 | 84 | 1016.7 |
| 20260902054037 | 79 | 51 | 0.0 | 0.0 | 0.00 | 0.00 | 0.00 | 83 | 1016.7 |
| 20260902053031 | 80 | 51 | 0.0 | 0.0 | 0.00 | 0.00 | 0.00 | 83 | 1016.7 |
| 20260902052025 | 80 | 51 | 0.0 | 0.0 | 0.00 | 0.00 | 0.00 | 82 | 1016.9 |
| 20260902051018 | 80 | 51 | 0.0 | 0.0 | 0.00 | 0.00 | 0.00 | 81 | 1017.1 |
| 20260902050026 | 80 | 51 | 0.0 | 0.0 | 0.00 | 0.00 | 0.00 | 80 | 1017.3 |
| 20260902045018 | 80 | 51 | 0.0 | 0.0 | 0.00 | 0.00 | 0.00 | 80 | 1016.7 |
| 20260902044032 | 81 | 51 | 0.0 | 0.0 | 0.00 | 0.00 | 0.00 | 80 | 1016.8 |
| 20260902043047 | 81 | 51 | 0.0 | 0.0 | 0.00 | 0.00 | 0.00 | 80 | 1016.5 |
| 20260902042018 | 81 | 51 | 0.0 | 0.0 | 0.00 | 0.00 | 0.00 | 80 | 1016.5 |
| 20260902041031 | 82 | 51 | 0.0 | 0.0 | 0.00 | 0.00 | 0.00 | 79 | 1016.5 |
| 20260902040017 | 82 | 51 | 0.0 | 4.0 | 0.00 | 0.00 | 0.00 | 78 | 1016.5 |
| 20260902035031 | 83 | 28 | 0.0 | 2.0 | 0.00 | 0.00 | 0.00 | 78 | 1016.3 |
| 20260902034016 | 84 | 257 | 0.0 | 0.0 | 0.00 | 0.00 | 0.00 | 79 | 1016.1 |
| 20260902033026 | 85 | 256 | 0.0 | 0.0 | 0.00 | 0.00 | 0.00 | 77 | 1015.8 |
| 20260902032049 | 85 | 256 | 0.0 | 0.0 | 0.00 | 0.00 | 0.00 | 76 | 1015.7 |
| 20260902031041 | 86 | 256 | 0.0 | 1.0 | 0.00 | 0.00 | 0.00 | 74 | 1015.4 |
| 20260902030026 | 87 | 256 | 0.0 | 0.0 | 0.00 | 0.00 | 0.00 | 72 | 1015.5 |
| 20260902025020 | 87 | 256 | 0.0 | 1.0 | 0.00 | 0.00 | 0.00 | 69 | 1015.1 |
| 20260902024053 | 87 | 256 | 0.0 | 2.0 | 0.00 | 0.00 | 0.00 | 68 | 1014.7 |
| 20260902023025 | 87 | 256 | 0.0 | 7.0 | 0.00 | 0.00 | 0.00 | 68 | 1014.7 |
| 20260902022019 | 87 | 236 | 1.0 | 5.0 | 0.00 | 0.00 | 0.00 | 67 | 1014.7 |
| 20260902021033 | 88 | 244 | 2.0 | 7.0 | 0.00 | 0.00 | 0.00 | 67 | 1014.7 |
| 20260902020020 | 88 | 245 | 3.0 | 8.0 | 0.00 | 0.00 | 0.00 | 67 | 1014.6 |
| 20260902015034 | 88 | 249 | 2.0 | 8.0 | 0.00 | 0.00 | 0.00 | 67 | 1014.4 |
| 20260902014019 | 88 | 266 | 1.0 | 9.0 | 0.00 | 0.00 | 0.00 | 68 | 1014.2 |
| 20260902013014 | 87 | 234 | 2.0 | 9.0 | 0.00 | 0.00 | 0.00 | 69 | 1014.3 |
| 20260902012024 | 87 | 251 | 3.0 | 7.0 | 0.00 | 0.00 | 0.00 | 69 | 1014.0 |
| 20260902011021 | 87 | 248 | 0.0 | 4.0 | 0.00 | 0.00 | 0.00 | 69 | 1014.0 |
| 20260902010026 | 87 | 248 | 0.0 | 2.0 | 0.00 | 0.00 | 0.00 | 69 | 1014.2 |
| 20260902005019 | 88 | 248 | 0.0 | 5.0 | 0.00 | 0.00 | 0.00 | 69 | 1014.2 |
| 20260902004013 | 88 | 240 | 1.0 | 4.0 | 0.00 | 0.00 | 0.00 | 69 | 1013.9 |
| 20260902003027 | 88 | 241 | 0.0 | 5.0 | 0.00 | 0.00 | 0.00 | 69 | 1013.6 |
| 20260902002041 | 88 | 246 | 1.0 | 4.0 | 0.00 | 0.00 | 0.00 | 68 | 1013.2 |
| 20260902001035 | 89 | 245 | 0.0 | 1.0 | 0.00 | 0.00 | 0.00 | 68 | 1012.9 |
| 20260902000037 | 90 | 245 | 0.0 | 0.0 | 0.00 | 0.00 | 0.00 | 67 | 1013.0 |
| 20260901235031 | 90 | 245 | 0.0 | 0.0 | 0.00 | 0.00 | 0.00 | 66 | 1013.2 |
| 20260901234025 | 91 | 245 | 0.0 | 0.0 | 0.00 | 0.00 | 0.00 | 65 | 1013.2 |
| 20260901233018 | 92 | 245 | 0.0 | 0.0 | 0.00 | 0.00 | 0.00 | 63 | 1013.4 |
| 20260901232031 | 93 | 245 | 0.0 | 0.0 | 0.00 | 0.00 | 0.00 | 62 | 1013.2 |
| 20260901231024 | 93 | 245 | 0.0 | 1.0 | 0.00 | 0.00 | 0.00 | 60 | 1013.4 |
| 20260901230030 | 94 | 245 | 0.0 | 2.0 | 0.00 | 0.00 | 0.00 | 59 | 1013.5 |
| 20260901225044 | 95 | 245 | 0.0 | 4.0 | 0.00 | 0.00 | 0.00 | 58 | 1013.5 |
| 20260901224016 | 95 | 249 | 0.0 | 7.0 | 0.00 | 0.00 | 0.00 | 56 | 1013.4 |
| 20260901223029 | 96 | 254 | 1.0 | 4.0 | 0.00 | 0.00 | 0.00 | 55 | 1013.4 |
| 20260901222015 | 97 | 238 | 0.0 | 7.0 | 0.00 | 0.00 | 0.00 | 54 | 1013.5 |
| 20260901221038 | 97 | 251 | 1.0 | 7.0 | 0.00 | 0.00 | 0.00 | 53 | 1013.5 |
| 20260901220025 | 98 | 240 | 0.0 | 3.0 | 0.00 | 0.00 | 0.00 | 53 | 1013.6 |
| 20260901215038 | 98 | 259 | 1.0 | 3.0 | 0.00 | 0.00 | 0.00 | 51 | 1013.6 |
| 20260901214024 | 98 | 275 | 1.0 | 2.0 | 0.00 | 0.00 | 0.00 | 51 | 1013.5 |
| 20260901213038 | 98 | 272 | 0.0 | 9.0 | 0.00 | 0.00 | 0.00 | 51 | 1013.7 |
| 20260901212040 | 98 | 254 | 1.0 | 4.0 | 0.00 | 0.00 | 0.00 | 52 | 1013.7 |
| 20260901211023 | 96 | 296 | 0.0 | 3.0 | 0.00 | 0.00 | 0.00 | 53 | 1013.9 |
| 20260901210038 | 96 | 248 | 0.0 | 3.0 | 0.00 | 0.00 | 0.00 | 53 | 1013.9 |
| 20260901205052 | 96 | 250 | 1.0 | 4.0 | 0.00 | 0.00 | 0.00 | 54 | 1014.1 |
| 20260901204015 | 96 | 254 | 0.0 | 5.0 | 0.00 | 0.00 | 0.00 | 54 | 1014.0 |
| 20260901203028 | 96 | 325 | 0.0 | 6.0 | 0.00 | 0.00 | 0.00 | 53 | 1014.1 |
| 20260901202038 | 96 | 243 | 1.0 | 7.0 | 0.00 | 0.00 | 0.00 | 53 | 1014.1 |
| 20260901201039 | 96 | 268 | 1.0 | 5.0 | 0.00 | 0.00 | 0.00 | 54 | 1014.2 |
| 20260901200026 | 97 | 314 | 0.0 | 7.0 | 0.00 | 0.00 | 0.00 | 54 | 1014.3 |
| 20260901195020 | 97 | 236 | 3.0 | 7.0 | 0.00 | 0.00 | 0.00 | 52 | 1014.5 |
| 20260901194054 | 98 | 291 | 0.0 | 9.0 | 0.00 | 0.00 | 0.00 | 54 | 1014.5 |
| 20260901193026 | 98 | 240 | 3.0 | 9.0 | 0.00 | 0.00 | 0.00 | 52 | 1014.6 |
| 20260901192019 | 99 | 259 | 2.0 | 8.0 | 0.00 | 0.00 | 0.00 | 52 | 1014.8 |
| 20260901191032 | 99 | 338 | 1.0 | 5.0 | 0.00 | 0.00 | 0.00 | 53 | 1014.8 |
| 20260901190019 | 98 | 244 | 0.0 | 5.0 | 0.00 | 0.00 | 0.00 | 55 | 1015.0 |
| 20260901185032 | 98 | 284 | 2.0 | 5.0 | 0.00 | 0.00 | 0.00 | 55 | 1015.1 |
| 20260901184016 | 98 | 311 | 0.0 | 8.0 | 0.00 | 0.00 | 0.00 | 57 | 1015.1 |
| 20260901183031 | 97 | 260 | 0.0 | 7.0 | 0.00 | 0.00 | 0.00 | 58 | 1015.1 |
| 20260901182024 | 96 | 277 | 0.0 | 3.0 | 0.00 | 0.00 | 0.00 | 61 | 1015.2 |
| 20260901181016 | 96 | 278 | 0.0 | 4.0 | 0.00 | 0.00 | 0.00 | 60 | 1015.2 |
| 20260901180023 | 95 | 285 | 0.0 | 5.0 | 0.00 | 0.00 | 0.00 | 61 | 1015.2 |
| 20260901175017 | 93 | 335 | 1.0 | 6.0 | 0.00 | 0.00 | 0.00 | 62 | 1015.2 |
| 20260901174031 | 92 | 297 | 0.0 | 4.0 | 0.00 | 0.00 | 0.00 | 66 | 1015.4 |
| 20260901173025 | 92 | 253 | 1.0 | 5.0 | 0.00 | 0.00 | 0.00 | 65 | 1015.3 |
| 20260901172038 | 92 | 321 | 0.0 | 3.0 | 0.00 | 0.00 | 0.00 | 64 | 1015.4 |